NOAA 16 DEB, 41249

Orbit data source: Space-Track

NOAA 16 DEB, 41249 is space debris in SSO originally from a launch on Thu, 21 Sep 2000 UTC launched from the Air Force Western Test Range (AFWTR). Debris objects in space refer to the collection of defunct objects orbiting the Earth. Examples of debris include non-operational satellites, rocket bodies, and fragments generated from explosions, collisions, or faulty payload assembly.

Loading next visibility...
Identifier
41249, 2000-055EZ
Orbit
SSO
Last TLE update
17 hours ago
Origin
Manufacturer
Unknown
Mission
Spacecraft
Bus & Motor
Unknown
Mass
Unknown
Launch date (UTC)
2000-09-21 (25 years ago)
Launch vehicle
Unknown
Launch site
Air Force Western Test Range (AFWTR)
Object type
Payload
Rocket body
Debris
Shape & HBR
Unknown
Radar Cross Section
Small (<0.1 m²)

Expand to show TLE details & history

TLE from 17 hours ago
0 NOAA 16 DEB
1 41249U 00055EZ  25199.28454157  .00005704  00000-0  13827-2 0  9991
2 41249  98.9770  41.5579 0033433 326.8370  33.0728 14.53040397497197
Epoch: 2025-07-18T06:49Z
TLE epoch observation values (Epoch: 2025-07-18T06:49:44.391Z)
Latitude
-0.00001°
Longitude
2.78473°
Altitude
698.832 km
Speed
7.517 km/s
True Right ascension
02h 46m 13s
True Declination
0° 00' 00"
Sunlit
Object was in daylight at epoch
Visualization orbit readout
Latitude
62.42531°
Longitude
-13.97601°
Altitude
730.014 km
Speed
7.494 km/s
Apparent Right ascension
00h 55m 39s
Apparent Declination
15° 14' 40"
Sunlit
Object is in daylight
Visualization observer readout
Local Sidereal Time
12:26:26
Azimuth
351.45° N
Elevation
-34.422°
Doppler factor
1
Orbital elements
Apogee altitude
736.571 km
Perigee altitude
689.156 km
Semi-major axis
7,091 km
Eccentricity
0.00334
Inclination
98.977°
RAAN
41.5579°
Arg. of periapsis
326.837°
True anomaly
33.2826°
Mean anomaly
33.0728°
Eccentric anomaly
33.17763°
Mean motion
3.63481 °/min
Orbital period
99.04 mins
BSTAR
0.0013827
Loading maneuver chart data...
Loading SW <> Apogee altitude chart data...
Loading historical data...
Loading historical data...
Loading historical data...
Loading historical data...
Loading historical data...
Loading historical data...
Loading historical data...
|